Preview of NWS' New Version of Forecast
This preview is not operational and should not be used for support decisions.

Regional Weather Roundup (RWR)

Issued by National Weather Service (NWS)

                            
348 
ASUS45 KPSR 200510
RWRAZ 

ARIZONA HOURLY REGIONAL WEATHER ROUNDUP
NATIONAL WEATHER SERVICE PHOENIX AZ
1000 PM MST TUE JUN 19 2018

NOTE: FAIR INDICATES FEW OR NO CLOUDS BELOW 12,000 FEET WITH NO
SIGNIFICANT WEATHER AND/OR OBSTRUCTIONS TO VISIBILITY.

AZZ001>003-036-200600-
NORTHWEST ARIZONA
  
CITY           SKY/WX    TMP DP  RH WIND       PRES   REMARKS
BULLHEAD CITY  CLEAR     95  19   6 CALM      29.76R                  
KINGMAN        CLEAR     75  18  11 S7        29.99R                  
$$

AZZ004>008-015-016-018-200600-
NORTH CENTRAL ARIZONA
  
CITY           SKY/WX    TMP DP  RH WIND       PRES   REMARKS
GRAND CANYON   CLEAR     53  27  36 CALM      30.21R                  
WILLIAMS       CLEAR     66  16  14 SW6       30.20S                  
PRESCOTT       CLEAR     74  20  13 SW10      30.09R                  
FLAGSTAFF      CLEAR     58  26  29 CALM      30.24R                  
PAYSON         CLEAR     73  25  16 N3        30.11R                  
PAGE           CLEAR     85  24  11 W5        30.00R                  
$$

AZZ009>014-017-200600-
NORTHEAST ARIZONA
  
CITY           SKY/WX    TMP DP  RH WIND       PRES   REMARKS
WINSLOW        CLEAR     74  25  16 SW14      30.05R                  
SAINT JOHNS    CLEAR     73  22  14 W14       30.10R                  
WINDOW ROCK    CLEAR     63  11  13 E3        30.18R                  
SHOW LOW       CLEAR     68  25  19 S9        30.20R                  
$$

AZZ540-542>544-546-548-200600-
GREATER PHOENIX AREA
  
CITY           SKY/WX    TMP DP  RH WIND       PRES   REMARKS
PHOENIX        CLEAR     94  33  11 W7        29.79R                  
BUCKEYE        CLEAR     82  32  16 W3        29.81R                  
LUKE AFB       CLEAR     89  30  12 SW7       29.79R                  
DEER VALLEY    CLEAR     88  29  12 CALM      29.82R                  
SCOTTSDALE     CLEAR     91  36  14 CALM      29.84R                  
MESA-GATEWAY   CLEAR     90  34  13 CALM      29.83R                  
$$

AZZ539-553-200600-
SOUTHWEST MARICOPA COUNTY AND PINAL COUNTY
  
CITY           SKY/WX    TMP DP  RH WIND       PRES   REMARKS
CASA GRANDE    CLEAR     86  33  15 W9        29.84R                  
GILA BEND      FAIR      88  36  15 SW9       29.80R                  
$$

AZZ503-504-507>509-200600-
SOUTHEAST ARIZONA
  
CITY           SKY/WX    TMP DP  RH WIND       PRES   REMARKS
TUCSON         CLEAR     83  37  19 W6        29.92R                  
DAVIS-MONTHAN  CLEAR     81  37  21 W6        29.91R                  
NOGALES        CLEAR     74  33  22 CALM      30.02R                  
SIERRA VISTA   CLEAR     76  31  19 W9        30.08R                  
DOUGLAS        CLEAR     77  34  21 NW9       30.02R                  
SAFFORD        CLEAR     83  25  12 NW15      29.91R                  
$$

AZZ532-200600-
SOUTHWEST ARIZONA
  
CITY           SKY/WX    TMP DP  RH WIND       PRES   REMARKS
YUMA           CLEAR     86  51  29 S7        29.78R                  
$$

CAZ041-043-047-048-061-525>527-560>570-200600-
SOUTHERN CALIFORNIA
  
CITY           SKY/WX    TMP DP  RH WIND       PRES   REMARKS
DOWNTOWN L.A.  CLEAR     63  57  81 CALM      29.96R                  
L.A. AIRPORT   MOCLDY    62  57  83 W7        29.97R                  
SAN DIEGO      CLOUDY    66  57  72 NW5       29.98R                  
BURBANK        CLEAR     65  59  81 SE8       29.95R                  
ONTARIO        CLEAR     66  56  70 W12       29.96R                  
RIVERSIDE      CLEAR     66  57  72 W7        29.96R                  
PALM SPRINGS   CLEAR     93  49  22 CALM      29.81R                  
EL CENTRO NAS  CLEAR     87  36  16 SW7       29.77R                  
IMPERIAL       CLEAR     88  45  22 SE6       29.74R                  
BLYTHE         CLEAR     95  37  13 SW14      29.77R                  
NEEDLES          N/A     96  13   5 MISG      29.78R                  
$$

NVZ020-UTZ003-200600-
SOUTHERN NEVADA-UTAH
  
CITY           SKY/WX    TMP DP  RH WIND       PRES   REMARKS
LAS VEGAS      CLEAR     93  28  10 SW6       29.86R                  
SALT LAKE CITY PTCLDY    68  40  35 SE6       30.14R                  
$$

NMZ009-TXZ055-200600-
NEW MEXICO-WEST TEXAS
  
CITY           SKY/WX    TMP DP  RH WIND       PRES   REMARKS
ALBUQUERQUE    CLEAR     80  16   9 N9        30.03R                  
EL PASO        CLEAR     91  20   7 NW8       29.90R                  
$$


........................KEY........................
SKY/WX - SKY CONDITION/WEATHER
TMP    - TEMPERATURE IN FAHRENHEIT
DP     - DEW POINT IN FAHRENHEIT
RH     - RELATIVE HUMIDITY IN PERCENT
WIND   - DIRECTION AND SPEED IN MILES PER HOUR (MPH)
VRB    - VARIABLE WIND DIRECTION
PRES   - MEAN SEA LEVEL PRESSURE IN INCHES OF MERCURY
         F - FALLING PRESSURE   R - RISING PRESSURE
         S - STEADY PRESSURE
VSB    - VISIBILITY IN MILES
HX     - HEAT INDEX IN FAHRENHEIT
WCI    - WIND CHILL INDEX IN FAHRENHEIT
TC     - TEMPERATURE IN CELSIUS WHICH IS ALSO KNOWN AS
         TEMPERATURE IN CENTIGRADE
AFB    - AIR FORCE BASE
         LUKE AFB IS LUKE AIR FORCE BASE
         DAVIS-MONTHAN IS DAVIS-MONTHAN AIR FORCE BASE
NAS    - NAVAL AIR STATION
         EL CENTRO NAS IS EL CENTRO NAVAL AIR STATION
N/A    - NOT AVAILABLE